[[{"header":{"parameterUnit":"m.s-1","parameterCategory":1,"la1":30.2991,"la2":30.254,"lo1":-89.0895,"lo2":-89.0444,"dy":0.0017,"dx":0.0017,"nx":28,"ny":28,"refTime":"2023-10-01T09:00:00:Z","depth":0,"parameterNumber":2,"parameterNumberName":"U-component_of_WINDS"},"data":[0,0,0,0,0,0,0,0,0,0,0,0,0,0,0,0,0,0,0,0,0,0,0,0,0,0,0,0,0,0,0,0,0,0,0,0,0,0,0,0,0,0,0,0,0,0,0,0,0,0,0,0,0,0,0,0,0,0,-4.1185,-4.1186,0,-4.1276,-4.1277,-4.1278,-4.1142,-4.1137,-4.1132,-4.1128,-4.1223,-4.123,-4.1237,0,0,0,0,0,0,0,0,0,0,0,0,0,-4.0893,-4.0899,-4.1185,-4.1186,-4.1187,-4.1276,-4.1278,-4.1279,-4.1143,-4.1137,-4.1131,-4.1126,-4.1221,-4.1229,-4.1237,0,0,0,0,0,0,0,0,0,0,0,0,0,-4.1006,-4.0901,-4.1185,-4.113,-4.1126,-4.1276,-4.1278,-4.1279,-4.1144,-4.1137,-4.113,-4.1123,-4.1218,-4.1228,-4.1239,-4.1447,0,0,-4.1271,-4.1275,0,0,0,0,0,0,0,0,-4.1,-4.1017,-4.1137,-4.1134,-4.113,-4.119,-4.1209,-4.1335,-4.1146,-4.1137,-4.1128,-4.112,-4.1218,-4.1228,-4.1261,-4.1451,-4.1455,-4.1272,-4.1278,-4.1282,-4.1285,0,0,0,0,0,0,0,-4.0992,-4.1012,-4.1221,-4.1139,-4.1134,-4.1101,-4.1109,-4.1233,-4.1217,-4.1137,-4.1128,-4.114,-4.1215,-4.1251,-4.1262,-4.1457,-4.1271,-4.1281,-4.1287,-4.1291,-4.1824,-4.1831,0,0,0,0,0,0,-4.0991,-4.1007,-4.1218,-4.1224,-4.1046,-4.1112,-4.1121,-4.1178,-4.1215,-4.1214,-4.1146,-4.1134,-4.1237,-4.125,-4.1265,-4.1512,-4.1282,-4.1292,-4.1298,-4.1816,-4.1825,-4.1834,0,0,0,0,0,0,-4.0985,-4.1011,-4.1214,-4.1113,-4.1136,-4.1125,-4.119,-4.1184,-4.122,-4.1222,-4.1218,-4.1187,-4.1232,-4.125,-4.1403,-4.1514,-4.1297,-4.1306,-4.1807,-4.1819,-4.183,-4.2008,0,0,0,0,0,0,-4.0977,-4.101,-4.1088,-4.1115,-4.1142,-4.1351,-4.1197,-4.1191,-4.1238,-4.1223,-4.1259,-4.1258,-4.1228,-4.1388,-4.1413,-4.1524,-4.1315,-4.1797,-4.1812,-4.1826,-4.1993,-4.2025,-4.2052,0,0,0,0,0,-4.0967,-4.1135,-4.1093,-4.1119,-4.124,-4.1357,-4.1372,-4.1334,-4.1248,-4.1327,-4.1328,-4.1257,-4.1497,-4.1405,-4.1432,-4.1548,-4.1789,-4.1808,-4.1825,-4.1979,-4.2018,-4.2052,0,0,0,0,0,0,-4.1122,-4.1138,-4.1091,-4.1273,-4.1315,-4.1334,-4.1433,-4.1377,-4.1444,-4.1427,-4.1376,-4.1386,-4.155,-4.1563,-4.146,-4.1752,-4.1629,-4.1653,-4.1737,-4.1775,-4.1804,-4.1798,-4.1323,0,0,0,0,0,-4.1177,-4.127,-4.1279,-4.1438,-4.1462,-4.1444,-4.1494,-4.1461,-4.1502,-4.152,-4.1532,-4.1575,-4.1661,-4.1718,-4.1797,-4.1993,-4.2,-4.2087,-4.2117,-4.2141,-4.2163,-4.2269,-4.2309,-4.1892,-4.1892,-4.1891,0,0,-4.1292,-4.1312,-4.1374,-4.147,-4.1499,-4.1597,-4.146,-4.157,-4.1643,-4.1536,-4.1681,-4.1692,-4.1737,-4.1913,-4.1991,-4.193,-4.2279,-4.2164,-4.2183,-4.2192,-4.2292,-4.2331,-4.2366,-4.1904,-4.1902,-4.19,0,0,-4.1552,-4.1576,-4.1712,-4.1744,-4.1789,-4.1776,-4.1809,-4.1837,-4.184,-4.1985,-4.1907,-4.1993,-4.2141,-4.2177,-4.2215,-4.2489,-4.2426,-4.2516,-4.2673,-4.2778,-4.281,-4.2839,-4.2939,-4.2975,-4.2538,-4.2538,-4.2538,0,-4.1689,-4.1834,-4.1789,-4.1905,-4.195,-4.1857,-4.1995,-4.2028,-4.2097,-4.2131,-4.206,-4.2245,-4.2269,-4.2453,-4.252,-4.2553,-4.259,-4.2512,-4.2809,-4.2838,-4.2864,-4.2958,-4.2996,-4.2549,-4.2548,-4.2546,-4.2545,0,-4.2001,-4.2104,-4.2208,-4.2277,-4.2333,-4.246,-4.2434,-4.2497,-4.2459,-4.2454,-4.2603,-4.2629,-4.2711,-4.2752,-4.2716,-4.2932,-4.2893,-4.2817,-4.2693,-4.2915,-4.3003,-4.3039,-4.2564,-4.256,-4.2557,-4.2555,0,0,-4.2362,-4.2404,-4.2444,-4.2474,-4.2517,-4.2596,-4.2718,-4.2799,-4.2854,-4.2905,-4.3007,-4.3135,-4.3066,-4.3109,-4.3076,-4.3167,-4.3385,-4.308,-4.3081,-4.3137,-4.3626,-4.3684,-4.3726,-4.3343,-4.335,-4.3355,-4.3623,0,-4.2622,-4.2833,-4.2797,-4.3002,-4.3097,-4.301,-4.3117,-4.3156,-4.3155,-4.3235,-4.3233,-4.3325,-4.3226,-4.3251,-4.3338,-4.334,-4.3483,-4.332,-4.3439,-4.3444,-4.3432,-4.3771,-4.3832,-4.4084,-4.3656,-4.3662,-4.3666,0,-4.2954,-4.3017,-4.3233,-4.3262,-4.33,-4.3397,-4.3468,-4.3546,-4.3588,-4.3581,-4.363,-4.358,-4.3703,-4.3576,-4.3746,-4.3636,-4.3683,-4.3691,-4.37,-4.371,-4.357,-4.3793,-4.4163,-4.4201,-4.372,-4.3715,-4.3712,0,-4.3197,-4.3336,-4.3483,-4.3511,-4.3549,-4.3619,-4.3638,-4.3673,-4.3725,-4.3787,-4.382,-4.3897,-4.3939,-4.4,-4.3972,-4.3882,-4.4148,-4.4018,-4.4146,-4.4147,-4.4207,-4.4204,-4.4591,-4.4235,-4.4235,-4.4234,-4.4233,0,-4.3492,-4.3628,-4.3593,-4.3683,-4.3833,-4.3789,-4.3939,-4.3947,-4.398,-4.4071,-4.4001,-4.4088,-4.4046,-4.4131,-4.411,-4.4255,-4.4274,-4.4272,-4.4265,-4.4279,-4.428,-4.431,-4.4292,-4.4244,-4.4242,-4.424,-4.4238,0,-4.3789,-4.3771,-4.3926,-4.3949,-4.3958,-4.4067,-4.4087,-4.4172,-4.4165,-4.4282,-4.4307,-4.4297,-4.4393,-4.4372,-4.4477,-4.4463,-4.4645,-4.4616,-4.4631,-4.4625,-4.4754,-4.4743,-4.5175,-4.523,-4.4838,-4.4842,-4.4845,0,-4.3979,-4.4081,-4.4116,-4.4172,-4.4196,-4.4287,-4.4339,-4.4301,-4.4358,-4.4414,-4.4493,-4.4583,-4.4653,-4.4811,-4.4813,-4.4894,-4.4867,-4.5013,-4.4879,-4.489,-4.4871,-4.4865,-4.4876,-4.504,-4.5044,-4.5048,-4.5051,0,-4.4319,-4.4305,-4.4383,-4.4458,-4.4522,-4.4579,-4.463,-4.468,-4.4646,-4.4714,-4.4811,-4.4865,-4.4973,-4.5064,-4.5139,-4.5158,-4.5101,-4.5093,-4.5127,-4.5143,-4.5148,-4.5148,-4.4705,-4.5084,-4.508,-4.5078,-4.5076,-4.5075,-4.4569,-4.4656,-4.4694,-4.4783,-4.4817,-4.4867,-4.4948,-4.4952,-4.5032,-4.5117,-4.5089,-4.5201,-4.5241,-4.5336,-4.5365,-4.5452,-4.5397,-4.5446,-4.5459,-4.5472,-4.5488,-4.5134,-4.5465,-4.5464,-4.5463,-4.5463,-4.5462,0,-4.4906,-4.4926,-4.5009,-4.5082,-4.5153,-4.5091,-4.5144,-4.5207,-4.5306,-4.5349,-4.5419,-4.5532,-4.562,-4.5629,-4.5712,-4.5781,-4.5756,-4.5804,-4.5799,-4.5805,-4.5532,-4.5495,-4.5822,-4.5822,-4.5822,-4.5822,-4.5822,-4.5822,-4.509,-4.5235,-4.5226,-4.5387,-4.5406,-4.5515,-4.5551,-4.5596,-4.563,-4.5759,-4.5831,-4.5837,-4.5867,-4.5952,-4.603,-4.603,-4.6065,-4.6124,-4.6114,-4.586,-4.5824,-4.579,-4.5754,-4.6131,-4.6132,-4.638,-4.6382,-4.6384]},{"header":{"parameterUnit":"m.s-1","parameterCategory":1,"la1":30.2991,"la2":30.254,"lo1":-89.0895,"lo2":-89.0444,"dy":0.0017,"dx":0.0017,"nx":28,"ny":28,"refTime":"2023-10-01T09:00:00:Z","depth":0,"parameterNumber":3,"parameterNumberName":"V-component_of_WINDS"},"data":[0,0,0,0,0,0,0,0,0,0,0,0,0,0,0,0,0,0,0,0,0,0,0,0,0,0,0,0,0,0,0,0,0,0,0,0,0,0,0,0,0,0,0,0,0,0,0,0,0,0,0,0,0,0,0,0,0,0,-1.235,-1.2349,0,-1.2324,-1.2324,-1.2323,-1.2342,-1.2342,-1.2343,-1.2344,-1.2316,-1.2315,-1.2313,0,0,0,0,0,0,0,0,0,0,0,0,0,-1.2412,-1.2411,-1.235,-1.2349,-1.2349,-1.2324,-1.2324,-1.2323,-1.2342,-1.2343,-1.2344,-1.2344,-1.2316,-1.2315,-1.2313,0,0,0,0,0,0,0,0,0,0,0,0,0,-1.2385,-1.241,-1.235,-1.2355,-1.2355,-1.2324,-1.2324,-1.2323,-1.2341,-1.2343,-1.2344,-1.2345,-1.2317,-1.2315,-1.2313,-1.2274,0,0,-1.2306,-1.2305,0,0,0,0,0,0,0,0,-1.2387,-1.2383,-1.2355,-1.2355,-1.2355,-1.2337,-1.2335,-1.2307,-1.2341,-1.2347,-1.2344,-1.2346,-1.2322,-1.2319,-1.2312,-1.2273,-1.2271,-1.2306,-1.2304,-1.2303,-1.2303,0,0,0,0,0,0,0,-1.2389,-1.2384,-1.234,-1.2354,-1.2354,-1.2358,-1.2356,-1.233,-1.2328,-1.2346,-1.2348,-1.2344,-1.2322,-1.2314,-1.2311,-1.2271,-1.2306,-1.2304,-1.2302,-1.2301,-1.2195,-1.2194,0,0,0,0,0,0,-1.239,-1.2386,-1.234,-1.2339,-1.2374,-1.2356,-1.2353,-1.2342,-1.2328,-1.2327,-1.2343,-1.2345,-1.2317,-1.2314,-1.231,-1.2261,-1.2303,-1.2301,-1.23,-1.2197,-1.2195,-1.2193,0,0,0,0,0,0,-1.2391,-1.2386,-1.2341,-1.2362,-1.2357,-1.2353,-1.234,-1.2341,-1.2332,-1.2326,-1.2325,-1.2335,-1.2318,-1.2314,-1.2282,-1.2261,-1.23,-1.2298,-1.2199,-1.2196,-1.2194,-1.2165,0,0,0,0,0,0,-1.2393,-1.2386,-1.2372,-1.2362,-1.2356,-1.2314,-1.2339,-1.2339,-1.2328,-1.2331,-1.2318,-1.2317,-1.2319,-1.2285,-1.228,-1.2258,-1.2296,-1.22,-1.2198,-1.2195,-1.2168,-1.2162,-1.2157,0,0,0,0,0,-1.2395,-1.2366,-1.2372,-1.2366,-1.2339,-1.2313,-1.231,-1.2312,-1.2327,-1.2312,-1.2307,-1.2318,-1.2265,-1.2282,-1.2276,-1.2253,-1.2202,-1.2198,-1.2195,-1.217,-1.2163,-1.2157,0,0,0,0,0,0,-1.2374,-1.2364,-1.2371,-1.2337,-1.2326,-1.2316,-1.2298,-1.2305,-1.2289,-1.2292,-1.2296,-1.2293,-1.2259,-1.2254,-1.2273,-1.2214,-1.2235,-1.2231,-1.2218,-1.2212,-1.2206,-1.2207,-1.2294,0,0,0,0,0,-1.2365,-1.2346,-1.2339,-1.231,-1.2304,-1.2302,-1.2291,-1.2294,-1.2282,-1.2277,-1.227,-1.2258,-1.2238,-1.2225,-1.2207,-1.2168,-1.2163,-1.2149,-1.2144,-1.2139,-1.2134,-1.211,-1.2103,-1.2183,-1.2183,-1.2183,0,0,-1.2347,-1.2339,-1.2327,-1.2305,-1.2297,-1.2275,-1.2298,-1.2275,-1.2258,-1.2274,-1.2243,-1.2237,-1.2223,-1.2187,-1.2171,-1.2181,-1.2112,-1.2135,-1.2132,-1.2129,-1.2106,-1.2098,-1.2092,-1.2181,-1.2181,-1.2181,0,0,-1.2302,-1.2296,-1.2269,-1.226,-1.2247,-1.2245,-1.2239,-1.2228,-1.2225,-1.2194,-1.2204,-1.2185,-1.2151,-1.214,-1.213,-1.2079,-1.2086,-1.2073,-1.2044,-1.202,-1.2014,-1.2008,-1.1987,-1.1979,-1.2069,-1.2068,-1.2068,0,-1.2281,-1.225,-1.2255,-1.223,-1.2219,-1.2232,-1.2203,-1.2194,-1.2176,-1.2167,-1.2179,-1.2136,-1.2128,-1.2087,-1.2075,-1.2067,-1.2058,-1.2073,-1.2015,-1.2009,-1.2004,-1.1983,-1.1976,-1.2067,-1.2067,-1.2067,-1.2067,0,-1.2223,-1.2201,-1.2181,-1.2162,-1.2149,-1.2123,-1.2122,-1.2108,-1.2112,-1.2109,-1.2076,-1.2066,-1.2045,-1.2036,-1.204,-1.1995,-1.2002,-1.2015,-1.2036,-1.1994,-1.1975,-1.1967,-1.2064,-1.2065,-1.2065,-1.2066,0,0,-1.2163,-1.2146,-1.2138,-1.2128,-1.2114,-1.2097,-1.2071,-1.205,-1.2036,-1.2023,-1.1999,-1.1969,-1.198,-1.1969,-1.1971,-1.1951,-1.1907,-1.1966,-1.1965,-1.1952,-1.1853,-1.1841,-1.1833,-1.1913,-1.1911,-1.191,-1.1853,0,-1.2115,-1.2069,-1.2072,-1.2028,-1.2007,-1.2018,-1.1994,-1.1982,-1.1978,-1.1958,-1.1954,-1.1932,-1.195,-1.1942,-1.1923,-1.1916,-1.1886,-1.1921,-1.1888,-1.1887,-1.1888,-1.1823,-1.1811,-1.1758,-1.1846,-1.1845,-1.1844,0,-1.2053,-1.2036,-1.199,-1.1977,-1.1968,-1.1947,-1.1926,-1.1908,-1.1894,-1.1892,-1.1878,-1.1884,-1.1855,-1.1878,-1.1837,-1.1861,-1.1848,-1.1842,-1.184,-1.1835,-1.1861,-1.1813,-1.1741,-1.1732,-1.1833,-1.1834,-1.1834,0,-1.201,-1.1977,-1.1944,-1.1936,-1.192,-1.1904,-1.1897,-1.1884,-1.187,-1.1852,-1.1843,-1.1822,-1.181,-1.1793,-1.1791,-1.1809,-1.1749,-1.1773,-1.1744,-1.1744,-1.1729,-1.1729,-1.1651,-1.1726,-1.1726,-1.1726,-1.1726,0,-1.1955,-1.1925,-1.1924,-1.1904,-1.187,-1.1873,-1.184,-1.1834,-1.1821,-1.1799,-1.1808,-1.1786,-1.1788,-1.1765,-1.1764,-1.1728,-1.1724,-1.172,-1.1719,-1.1717,-1.1717,-1.1707,-1.1709,-1.1724,-1.1724,-1.1725,-1.1725,0,-1.19,-1.1899,-1.1863,-1.1851,-1.1847,-1.1822,-1.1811,-1.179,-1.1787,-1.1758,-1.1751,-1.1746,-1.172,-1.1717,-1.1687,-1.1686,-1.1642,-1.1647,-1.1647,-1.1646,-1.1616,-1.1618,-1.1526,-1.1512,-1.1599,-1.1598,-1.1597,0,-1.1864,-1.1841,-1.1826,-1.1811,-1.1802,-1.1779,-1.1765,-1.1767,-1.1751,-1.1732,-1.1713,-1.1688,-1.1667,-1.1624,-1.1617,-1.1593,-1.1596,-1.1565,-1.1592,-1.1589,-1.1591,-1.1591,-1.1587,-1.1559,-1.1558,-1.1557,-1.1557,0,-1.1797,-1.1797,-1.1777,-1.1755,-1.1737,-1.172,-1.1704,-1.1692,-1.1691,-1.1673,-1.1646,-1.163,-1.1599,-1.1572,-1.1549,-1.154,-1.1546,-1.1548,-1.154,-1.1536,-1.1535,-1.1531,-1.1629,-1.155,-1.1551,-1.1551,-1.1551,-1.1552,-1.1749,-1.1728,-1.1713,-1.1689,-1.1677,-1.1661,-1.164,-1.1634,-1.1612,-1.1586,-1.1589,-1.1558,-1.1542,-1.151,-1.15,-1.1474,-1.1484,-1.1473,-1.1469,-1.1466,-1.1461,-1.1541,-1.1471,-1.1471,-1.1471,-1.1471,-1.1471,0,-1.168,-1.1671,-1.1649,-1.1625,-1.1606,-1.1616,-1.1598,-1.158,-1.1553,-1.1538,-1.1517,-1.1484,-1.1458,-1.1448,-1.1422,-1.1404,-1.1406,-1.1397,-1.1397,-1.1394,-1.1455,-1.1464,-1.1395,-1.1395,-1.1395,-1.1395,-1.1395,-1.1395,-1.1642,-1.1606,-1.1604,-1.1561,-1.1552,-1.1522,-1.151,-1.1495,-1.1483,-1.1446,-1.1424,-1.1418,-1.1404,-1.1377,-1.1352,-1.135,-1.1338,-1.1327,-1.1325,-1.1382,-1.139,-1.1397,-1.1405,-1.1325,-1.1325,-1.1265,-1.1265,-1.1264]}]]